Columbia, SC

9:14 PM EST on November 16, 2019 (GMT -0500)
Columbia Metro

Weather History for KCAE - October, 2019

Change the Weather History Date:

Wednesday, October 23, 2019

  Actual Average Record
Temperature  
Mean Temperature 60 °F 62 °F  
Max Temperature 73 °F 74 °F 90 °F (2007)
Min Temperature 46 °F 49 °F 27 °F (1974)
Degree Days  
Heating Degree Days 5 5  
Month to date heating degree days 29 65  
Since 1 July heating degree days 29 73  
Cooling Degree Days 0 2  
Month to date cooling degree days 176 76  
Year to date cooling degree days 2695 2143  
Growing Degree Days 10 (Base 50)    
Moisture  
Dew Point 42 °F    
Average Humidity 57    
Maximum Humidity 86    
Minimum Humidity 27    
Precipitation  
Precipitation 0.00 in 0.10 in 1.96 in (1919)
Month to date precipitation 1.42 2.47  
Year to date precipitation 29.01 37.93  
Sea Level Pressure  
Sea Level Pressure 30.12 in    
Wind  
Wind Speed 4 mph (NNW)    
Max Wind Speed 12 mph    
Max Gust Speed 15 mph    
Visibility 10 miles    
Events Fog    
T = Trace of Precipitation, MM = Missing Value Source: NWS Daily Summary

Daily Weather History Graph

Daily Weather History Graph

Search for Another Location

Airport or City:

Astronomy

Oct. 23, 2019 Rise Set
Actual Time 7:35 AM EDT 6:41 PM EDT
Civil Twilight 7:10 AM EDT 7:06 PM EDT
Nautical Twilight 6:41 AM EDT 7:35 PM EDT
Astronomical Twilight 6:12 AM EDT 8:04 PM EDT
Moon 2:13 AM EDT (10/23) 4:12 PM EDT (10/23)
Length of Visible Light 11h 56m
Length of Day
11h 05m
Waning Crescent, 27% of the Moon is Illuminated
Oct 23
Waning Crescent
Oct 27
New
Nov 4
First Quarter
Nov 12
Full
Nov 19
Last Quarter

Hourly Weather History & Observations

Time (EDT) Temp. Dew Point Humidity Pressure Visibility Wind Dir Wind Speed Gust Speed Precip Events Conditions
12:56 AM 57.9 °F 41.0 °F 53% 29.99 in 10.0 mi West 6.9 mph - N/A   Scattered Clouds
1:56 AM 55.9 °F 42.1 °F 60% 30.01 in 10.0 mi WSW 5.8 mph - N/A   Clear
2:56 AM 52.0 °F 43.0 °F 71% 30.02 in 10.0 mi West 5.8 mph - N/A   Clear
3:56 AM 51.1 °F 43.0 °F 74% 30.01 in 10.0 mi West 3.5 mph - N/A   Clear
4:56 AM 51.1 °F 43.0 °F 74% 30.03 in 10.0 mi Calm Calm - N/A   Clear
5:56 AM 46.9 °F 42.1 °F 83% 30.06 in 10.0 mi West 5.8 mph - N/A   Clear
6:56 AM 46.9 °F 42.1 °F 83% 30.09 in 10.0 mi West 5.8 mph - N/A   Clear
7:56 AM 46.9 °F 43.0 °F 86% 30.10 in 10.0 mi West 5.8 mph - N/A Fog Patches of Fog
8:56 AM 55.9 °F 45.0 °F 67% 30.13 in 10.0 mi Variable 4.6 mph - N/A   Partly Cloudy
9:56 AM 62.1 °F 41.0 °F 46% 30.15 in 10.0 mi NNE 9.2 mph - N/A   Partly Cloudy
10:56 AM 64.0 °F 42.1 °F 45% 30.16 in 10.0 mi Variable 5.8 mph - N/A   Partly Cloudy
11:56 AM 68.0 °F 39.9 °F 36% 30.16 in 10.0 mi NNE 4.6 mph - N/A   Partly Cloudy
12:56 PM 70.0 °F 37.0 °F 30% 30.14 in 10.0 mi North 4.6 mph - N/A   Partly Cloudy
1:56 PM 71.1 °F 37.9 °F 30% 30.13 in 10.0 mi Variable 4.6 mph - N/A   Partly Cloudy
2:56 PM 71.1 °F 37.0 °F 29% 30.12 in 10.0 mi NNE 5.8 mph - N/A   Partly Cloudy
3:56 PM 73.0 °F 37.9 °F 28% 30.13 in 10.0 mi NE 6.9 mph - N/A   Partly Cloudy
4:56 PM 72.0 °F 37.9 °F 29% 30.14 in 10.0 mi NE 4.6 mph - N/A   Partly Cloudy
5:56 PM 71.1 °F 37.0 °F 29% 30.14 in 10.0 mi North 5.8 mph - N/A   Partly Cloudy
6:56 PM 66.9 °F 41.0 °F 39% 30.16 in 10.0 mi North 3.5 mph - N/A   Scattered Clouds
7:56 PM 57.0 °F 46.0 °F 67% 30.18 in 10.0 mi Calm Calm - N/A   Clear
8:56 PM 55.0 °F 46.0 °F 72% 30.19 in 10.0 mi Calm Calm - N/A   Clear
9:56 PM 52.0 °F 45.0 °F 77% 30.21 in 10.0 mi Calm Calm - N/A   Clear
10:56 PM 51.1 °F 45.0 °F 80% 30.22 in 10.0 mi Calm Calm - N/A   Clear
11:56 PM 48.9 °F 45.0 °F 86% 30.22 in 10.0 mi Calm Calm - N/A   Clear